Location: Clinton NY
(43.0598°N, 75.3602°W)
Time: 20:13:26
(UTC-04:00)

Amateur Radio Satellites - All Passes

Search period start: 16 October 2017 19:43
Search period end: 17 October 2017 19:43
Location: Clinton NY, 43.0598°N, 75.3602°W

Satellite Date Start Highest point End Downlink Frequencies (MHz)
Time Altitude Azimuth
AO-73 16 Oct 19:46:02 19:49:56 28° 68° (ENE) 19:53:50 145.935
NUDT-PHONESAT 16 Oct 19:48:01 19:49:21 12° 270° (W) 19:50:42 437.300
PCSat 16 Oct 19:57:30 20:01:53 25° 252° (WSW) 20:06:15 145.827
STRAND 1 16 Oct 19:58:25 20:03:09 35° 97° (E) 20:07:51 437.568
YUBILEINY 16 Oct 20:00:45 20:07:56 27° 65° (ENE) 20:15:04 435.215
ZACube-1 16 Oct 20:04:46 20:09:09 49° 72° (ENE) 20:13:36 437.345
AAUSAT CUBESAT 2 16 Oct 20:08:13 20:12:20 83° 77° (ENE) 20:16:28 437.432
UWE-3 16 Oct 20:17:07 20:21:42 70° 258° (WSW) 20:26:24 435.000/436.395/437.385
STARS 16 Oct 20:25:12 20:27:18 13° 299° (WNW) 20:29:25 437.465
HO-68 16 Oct 20:41:50 20:47:32 25° 267° (W) 20:53:19 435.675
DELFI C3 16 Oct 20:43:07 20:45:30 16° 65° (ENE) 20:47:54 145.870
Oscar 11 16 Oct 20:49:25 20:53:46 89° 72° (ENE) 20:58:09 .
XW-2A 16 Oct 20:54:19 20:56:30 16° 267° (W) 20:58:42 145.665 - 145.685
Max Valier Satellite 16 Oct 20:56:49 20:59:05 16° 66° (ENE) 21:01:21 145.860
EO-88 16 Oct 20:58:03 20:59:17 11° 64° (ENE) 21:00:30 145.990 - 145.960
CUBEBUG 2 16 Oct 21:09:09 21:11:26 13° 272° (W) 21:13:45 437.445
FO-29 16 Oct 21:10:19 21:16:25 35° 96° (E) 21:23:02 435.910
BEESAT 3 16 Oct 21:13:11 21:16:15 21° 43° (NE) 21:19:15 437.485
AO-85 16 Oct 21:21:14 21:22:19 11° 33° (NNE) 21:23:26 145.980
AO-73 16 Oct 21:22:03 21:26:03 30° 265° (W) 21:30:06 145.935
STRAND 1 16 Oct 21:37:45 21:42:12 30° 294° (WNW) 21:46:39 437.568
ZACube-1 16 Oct 21:42:37 21:45:40 18° 269° (W) 21:48:46 437.345
YUBILEINY 16 Oct 21:56:48 22:05:32 72° 266° (W) 22:14:16 435.215
O/OREOS (USA 219) 16 Oct 21:58:40 22:03:12 81° 111° (ESE) 22:07:49 437.305
ESTCUBE 1 16 Oct 22:14:54 22:16:41 12° 60° (ENE) 22:18:27 437.505/2401.250
DELFI C3 16 Oct 22:16:12 22:19:55 41° 262° (W) 22:23:38 145.870
BEESAT 2 16 Oct 22:23:19 22:26:58 31° 48° (NE) 22:30:33 435.950
EO-88 16 Oct 22:28:53 22:32:27 53° 260° (W) 22:36:03 145.990 - 145.960
Max Valier Satellite 16 Oct 22:29:05 22:32:35 38° 262° (W) 22:36:07 145.860
UNISAT 6 16 Oct 22:33:06 22:37:34 44° 98° (E) 22:41:55 437.425
TIGRISAT 16 Oct 22:49:01 22:53:39 60° 101° (E) 22:58:08 435.000
BEESAT 3 16 Oct 22:50:13 22:54:00 44° 242° (WSW) 22:57:43 437.485
FO-29 16 Oct 22:55:12 23:01:30 48° 291° (WNW) 23:08:29 435.910
AO-85 16 Oct 22:59:13 23:03:39 54° 53° (NE) 23:08:24 145.980
AIST 2D 16 Oct 23:19:10 23:20:45 13° 91° (E) 23:22:21 435.315
PRISM 16 Oct 23:19:58 23:24:03 60° 102° (ESE) 23:28:08 437.425
LO-87 16 Oct 23:31:53 23:35:28 73° 258° (WSW) 23:39:05 145.935 - 145.965
O/OREOS (USA 219) 16 Oct 23:40:58 23:43:15 13° 311° (NW) 23:45:32 437.305
SPROUT 16 Oct 23:44:16 23:47:43 24° 67° (ENE) 23:51:11 437.525
ESTCUBE 1 16 Oct 23:48:21 23:52:51 77° 258° (WSW) 23:57:22 437.505/2401.250
YUBILEINY 16 Oct 23:56:52 00:00:37 14° 287° (WNW) 00:04:25 435.215
VELOX 1 16 Oct 23:57:15 00:00:46 24° 66° (ENE) 00:04:19 145.980
BEESAT 2 17 Oct 00:01:10 00:04:36 27° 246° (WSW) 00:07:58 435.950
UNISAT 6 17 Oct 00:10:31 00:13:56 21° 296° (WNW) 00:17:18 437.425
EO-79 17 Oct 00:21:28 00:25:10 28° 96° (E) 00:28:49 145.935-145.965
POLYITAN 1 17 Oct 00:24:56 00:28:43 30° 96° (E) 00:32:28 437.675
TIGRISAT 17 Oct 00:27:00 00:29:48 16° 298° (WNW) 00:32:33 435.000
AO-85 17 Oct 00:40:24 00:43:46 20° 248° (WSW) 00:47:17 145.980
QB50P2 17 Oct 00:44:35 00:48:49 55° 100° (E) 00:52:59 145.880/145.840
AIST 2D 17 Oct 00:50:52 00:54:07 37° 287° (WNW) 00:57:19 435.315
NANOSAT C BR1 17 Oct 00:52:09 00:56:20 54° 100° (E) 01:00:28 145.865
PRISM 17 Oct 00:56:54 00:58:49 13° 298° (WNW) 01:00:44 437.425
DUCHIFAT 1 17 Oct 01:05:13 01:09:28 66° 102° (ESE) 01:13:39 145.980
RS-15 17 Oct 01:09:22 01:20:57 52° 111° (ESE) 01:32:34 29.354- 29.394
50 SAT 17 Oct 01:13:53 01:16:57 41° 73° (ENE) 01:20:04 437.505
DX 1 17 Oct 01:15:58 01:20:01 41° 71° (ENE) 01:24:06 434.975-435.025
SPROUT 17 Oct 01:19:38 01:23:27 31° 264° (W) 01:27:18 437.525
BUGSAT 1 17 Oct 01:29:30 01:33:18 31° 96° (E) 01:37:03 437.445
VELOX 1 17 Oct 01:33:07 01:37:03 33° 263° (W) 01:41:02 145.980
Gurwin Techsat 1B 17 Oct 01:33:15 01:35:42 13° 89° (E) 01:38:08 435.225
Oscar 19 17 Oct 01:33:19 01:36:53 19° 92° (E) 01:40:26 437.125/150
UKube-1 17 Oct 01:48:24 01:52:37 59° 73° (ENE) 01:56:52 .
EO-79 17 Oct 01:57:14 02:00:50 27° 292° (WNW) 02:04:25 145.935-145.965
POLYITAN 1 17 Oct 02:00:52 02:04:22 25° 293° (WNW) 02:07:51 437.675
QB50P2 17 Oct 02:21:43 02:24:07 15° 297° (WNW) 02:26:32 145.880/145.840
NANOSAT C BR1 17 Oct 02:29:08 02:31:35 15° 297° (WNW) 02:34:02 145.865
DUCHIFAT 1 17 Oct 02:42:42 02:44:34 13° 299° (WNW) 02:46:25 145.980
50 SAT 17 Oct 02:49:13 02:49:31 10° 269° (W) 02:49:48 437.505
M-CUBED/EXP-1 PRIME 17 Oct 02:53:05 02:56:33 89° 113° (ESE) 03:00:14 437.505
DX 1 17 Oct 02:53:21 02:56:22 18° 267° (W) 02:59:25 434.975-435.025
ITUPSAT 1 17 Oct 02:56:07 03:00:37 41° 69° (ENE) 03:05:08 437.325
MOZHAYETS 4 17 Oct 03:04:40 03:09:10 52° 72° (ENE) 03:13:42
BUGSAT 1 17 Oct 03:05:04 03:08:29 24° 293° (WNW) 03:11:52 437.445
CUBESAT XI-V 17 Oct 03:07:48 03:10:07 14° 61° (ENE) 03:12:26 437.345
Gurwin Techsat 1B 17 Oct 03:10:55 03:16:16 81° 286° (WNW) 03:21:34 435.225
Oscar 19 17 Oct 03:11:32 03:16:32 55° 289° (WNW) 03:21:31 437.125/150
BEESAT 17 Oct 03:14:07 03:18:50 62° 73° (ENE) 03:23:35 436.000
RS-15 17 Oct 03:21:22 03:33:27 57° 315° (NW) 03:45:29 29.354- 29.394
UKube-1 17 Oct 03:27:04 03:29:00 13° 269° (W) 03:30:57 .
ITAMSAT 1 17 Oct 03:36:33 03:39:58 17° 91° (E) 03:43:21 435.822/435.867
NO-84 17 Oct 03:45:40 03:48:23 16° 125° (SE) 03:51:05 435.350 FM
AO-7 17 Oct 04:19:03 04:27:09 54° 102° (ESE) 04:35:14 .
ITUPSAT 1 17 Oct 04:34:48 04:38:34 23° 266° (W) 04:42:22 437.325
CUBESAT XI-V 17 Oct 04:42:17 04:46:55 71° 259° (W) 04:51:32 437.345
MOZHAYETS 4 17 Oct 04:43:40 04:46:37 17° 269° (W) 04:49:35
Gurwin Techsat 1B 17 Oct 04:53:20 04:55:21 12° 304° (WNW) 04:57:21 435.225
BEESAT 17 Oct 04:54:20 04:57:00 15° 269° (W) 04:59:41 436.000
KKS-1 17 Oct 05:00:21 05:04:40 57° 73° (ENE) 05:09:03 437.445
ITAMSAT 1 17 Oct 05:14:39 05:19:49 62° 289° (WNW) 05:24:59 435.822/435.867
NO-84 17 Oct 05:21:04 05:25:23 80° 321° (NW) 05:29:34 435.350 FM
RS-15 17 Oct 05:39:21 05:49:26 28° 346° (NNW) 05:59:20 29.354- 29.394
STARS 17 Oct 05:44:10 05:48:30 68° 73° (ENE) 05:52:54 437.465
DOVE 4 17 Oct 05:57:19 06:02:06 53° 100° (E) 06:07:07 437.250
XW-2C 17 Oct 06:02:27 06:03:33 11° 90° (E) 06:04:40 145.795 - 145.815
AO-7 17 Oct 06:12:14 06:19:39 38° 302° (WNW) 06:27:03 .
O/OREOS (USA 219) 17 Oct 06:29:10 06:32:44 21° 55° (NE) 06:36:16 437.305
KKS-1 17 Oct 06:39:14 06:41:34 14° 269° (W) 06:43:57 437.445
LilacSat-2 17 Oct 06:45:45 06:49:20 40° 98° (E) 06:52:53 437.200
XW-2F 17 Oct 06:48:52 06:52:21 37° 98° (E) 06:55:49 145.980 - 146.000
KAITUO 1B 17 Oct 06:53:50 06:57:12 33° 97° (E) 07:00:33 145.475/437.950
CUTE-I 17 Oct 06:56:07 07:01:11 41° 98° (E) 07:06:14 437.470
XW-2D 17 Oct 06:57:59 07:01:42 55° 100° (E) 07:05:21 145.860 - 145.880
NO-84 17 Oct 06:59:58 07:03:19 22° 339° (NNW) 07:06:33 435.350 FM
CUTE 1.7 + AOD 2 17 Oct 07:00:51 07:02:39 12° 90° (E) 07:04:25 437.475
XW-2B 17 Oct 07:11:16 07:15:02 79° 101° (E) 07:18:46 145.730 - 145.750
NUDT-PHONESAT 17 Oct 07:14:18 07:17:56 59° 100° (E) 07:21:31 437.300
STRAND 1 17 Oct 07:15:00 07:19:59 56° 71° (ENE) 07:25:01 437.568
SEEDS 17 Oct 07:16:05 07:17:10 11° 89° (E) 07:18:16 437.485
CUBEBUG 2 17 Oct 07:21:21 07:23:46 14° 89° (E) 07:26:08 437.445
STARS 17 Oct 07:23:48 07:25:18 12° 270° (W) 07:26:48 437.465
FO-29 17 Oct 07:27:48 07:30:04 13° 55° (NE) 07:32:23 435.910
XW-2C 17 Oct 07:34:24 07:38:03 51° 286° (WNW) 07:41:40 145.795 - 145.815
DOVE 4 17 Oct 07:35:56 07:39:26 20° 295° (WNW) 07:43:02 437.250
AAUSAT CUBESAT 2 17 Oct 07:51:09 07:52:42 12° 89° (E) 07:54:16 437.432
SO-50 17 Oct 07:52:07 07:56:22 45° 118° (ESE) 08:00:39 436.795
RS-15 17 Oct 07:56:46 08:07:07 30° 21° (NNE) 08:17:03 29.354- 29.394
HO-68 17 Oct 08:06:21 08:13:31 62° 102° (ESE) 08:20:37 435.675
UWE-3 17 Oct 08:06:28 08:10:06 23° 93° (E) 08:13:38 435.000/436.395/437.385
O/OREOS (USA 219) 17 Oct 08:07:58 08:12:22 45° 253° (WSW) 08:16:43 437.305
XW-2A 17 Oct 08:13:46 08:16:38 25° 96° (E) 08:19:27 145.665 - 145.685
LilacSat-2 17 Oct 08:21:03 08:23:16 15° 295° (WNW) 08:25:28 437.200
XW-2F 17 Oct 08:23:54 08:26:09 16° 294° (WNW) 08:28:24 145.980 - 146.000
KAITUO 1B 17 Oct 08:28:30 08:30:56 17° 294° (WNW) 08:33:21 145.475/437.950
XW-2D 17 Oct 08:34:06 08:35:23 11° 297° (WNW) 08:36:39 145.860 - 145.880
CUTE 1.7 + AOD 2 17 Oct 08:34:42 08:38:50 58° 286° (WNW) 08:42:57 437.475
CUTE-I 17 Oct 08:36:32 08:41:02 28° 296° (WNW) 08:45:32 437.470
Oscar 11 17 Oct 08:36:55 08:39:27 15° 91° (E) 08:41:58 .
NO-84 17 Oct 08:39:36 08:41:54 15° 0° (N) 08:44:08 435.350 FM
SEEDS 17 Oct 08:49:09 08:53:16 65° 286° (WNW) 08:57:24 437.485
NUDT-PHONESAT 17 Oct 08:50:39 08:51:16 10° 297° (WNW) 08:51:53 437.300
STRAND 1 17 Oct 08:55:59 08:59:31 19° 268° (W) 09:03:04 437.568
CUBEBUG 2 17 Oct 08:56:09 09:00:49 63° 286° (WNW) 09:05:19 437.445
PCSat 17 Oct 08:56:16 09:01:10 36° 111° (ESE) 09:06:05 145.827
YUBILEINY 17 Oct 09:03:57 09:10:57 28° 82° (E) 09:17:57 435.215
AO-73 17 Oct 09:08:30 09:12:47 49° 99° (E) 09:16:56 145.935
FO-29 17 Oct 09:09:04 09:14:15 90° 254° (WSW) 09:19:47 435.910
AAUSAT CUBESAT 2 17 Oct 09:24:28 09:28:31 58° 286° (WNW) 09:32:34 437.432
ZACube-1 17 Oct 09:28:09 09:32:37 89° 293° (WNW) 09:36:56 437.345
Tancredo 1 17 Oct 09:31:12 09:32:35 17° 138° (SE) 09:33:59 437.200
UNISAT 6 17 Oct 09:32:16 09:36:37 43° 71° (ENE) 09:41:05 437.425
SO-50 17 Oct 09:33:17 09:37:01 25° 317° (NW) 09:40:46 436.795
UWE-3 17 Oct 09:42:28 09:46:38 35° 290° (WNW) 09:50:41 435.000/436.395/437.385
XW-2A 17 Oct 09:46:51 09:49:09 17° 292° (WNW) 09:51:26 145.665 - 145.685
TIGRISAT 17 Oct 09:47:55 09:52:27 57° 73° (ENE) 09:57:04 435.000
DELFI C3 17 Oct 09:52:15 09:55:18 21° 94° (E) 09:58:20 145.870
HO-68 17 Oct 09:54:49 10:00:45 29° 301° (WNW) 10:06:41 435.675
EO-88 17 Oct 09:58:13 09:59:31 12° 91° (E) 10:00:48 145.990 - 145.960
Max Valier Satellite 17 Oct 09:58:35 10:01:02 17° 93° (E) 10:03:26 145.860
PRISM 17 Oct 10:09:46 10:13:39 46° 72° (ENE) 10:17:33 437.425
RS-15 17 Oct 10:10:16 10:22:18 70° 51° (NE) 10:33:38 29.354- 29.394
Oscar 11 17 Oct 10:11:42 10:15:52 49° 288° (WNW) 10:20:00 .
NO-84 17 Oct 10:17:17 10:20:28 23° 22° (NNE) 10:23:26 435.350 FM
PCSat 17 Oct 10:39:33 10:44:32 36° 310° (NW) 10:49:33 145.827
AO-73 17 Oct 10:45:45 10:48:35 17° 297° (WNW) 10:51:23 145.935
YUBILEINY 17 Oct 10:58:27 11:07:03 64° 282° (WNW) 11:15:44 435.215
Tancredo 1 17 Oct 11:02:49 11:04:24 22° 335° (NNW) 11:06:00 437.200
UNISAT 6 17 Oct 11:10:06 11:13:31 20° 268° (W) 11:16:59 437.425
EO-79 17 Oct 11:14:44 11:18:09 24° 67° (ENE) 11:21:36 145.935-145.965
POLYITAN 1 17 Oct 11:18:15 11:21:49 26° 68° (ENE) 11:25:24 437.675
AIST 2D 17 Oct 11:25:08 11:28:39 80° 76° (ENE) 11:32:11 435.315
DELFI C3 17 Oct 11:26:35 11:30:03 30° 290° (WNW) 11:33:32 145.870
TIGRISAT 17 Oct 11:26:47 11:29:30 15° 270° (W) 11:32:15 435.000
EO-88 17 Oct 11:29:55 11:33:25 45° 287° (WNW) 11:36:53 145.990 - 145.960
Max Valier Satellite 17 Oct 11:31:37 11:34:56 32° 289° (WNW) 11:38:13 145.860
nSIGHT-1 17 Oct 11:36:14 11:39:17 45° 141° (SE) 11:42:22 .
QB50P2 17 Oct 11:37:38 11:41:43 46° 72° (ENE) 11:45:49 145.880/145.840
ESTCUBE 1 17 Oct 11:40:29 11:43:50 20° 93° (E) 11:47:10 437.505/2401.250
NANOSAT C BR1 17 Oct 11:44:40 11:48:42 44° 71° (ENE) 11:52:45 145.865
PRISM 17 Oct 11:46:57 11:49:10 14° 268° (W) 11:51:25 437.425
NO-84 17 Oct 11:54:30 11:58:13 72° 222° (SW) 12:01:36 435.350 FM
DUCHIFAT 1 17 Oct 11:57:21 12:01:28 53° 73° (ENE) 12:05:38 145.980
ISS 17 Oct 11:59:53 12:03:07 69° 143° (SE) 12:06:22 437.550
BUGSAT 1 17 Oct 12:20:00 12:23:26 25° 67° (ENE) 12:26:54 437.445
RS-15 17 Oct 12:23:38 12:33:52 37° 255° (WSW) 12:43:40 29.354- 29.394
LO-87 17 Oct 12:30:53 12:34:31 67° 285° (WNW) 12:38:06 145.935 - 145.965
BEESAT 3 17 Oct 12:40:40 12:43:46 22° 113° (ESE) 12:46:54 437.485
EO-79 17 Oct 12:49:58 12:53:46 31° 264° (W) 12:57:36 145.935-145.965
Oscar 19 17 Oct 12:50:42 12:55:12 31° 66° (ENE) 12:59:43 437.125/150
POLYITAN 1 17 Oct 12:53:46 12:57:29 29° 264° (W) 13:01:16 437.675
Gurwin Techsat 1B 17 Oct 12:54:28 12:58:42 25° 64° (ENE) 13:02:57 435.225
YUBILEINY 17 Oct 13:02:01 13:05:54 13° 306° (NW) 13:09:48 435.215
SPROUT 17 Oct 13:03:41 13:07:44 38° 98° (E) 13:11:44 437.525
nSIGHT-1 17 Oct 13:12:48 13:15:40 30° 339° (NNW) 13:18:34 .
QB50P2 17 Oct 13:15:02 13:17:44 16° 268° (W) 13:20:27 145.880/145.840
ESTCUBE 1 17 Oct 13:16:35 13:20:46 39° 290° (WNW) 13:24:56 437.505/2401.250
AO-85 17 Oct 13:18:35 13:19:03 10° 108° (ESE) 13:19:31 145.980
VELOX 1 17 Oct 13:21:28 13:25:40 41° 99° (E) 13:29:51 145.980
NANOSAT C BR1 17 Oct 13:21:50 13:24:36 17° 268° (W) 13:27:24 145.865
AO-7 17 Oct 13:30:03 13:35:32 20° 48° (NE) 13:41:00 .
DUCHIFAT 1 17 Oct 13:35:12 13:37:26 14° 269° (W) 13:39:42 145.980
ISS 17 Oct 13:37:02 13:39:50 26° 342° (NNW) 13:42:39 437.550
M-CUBED/EXP-1 PRIME 17 Oct 13:40:02 13:43:28 56° 253° (WSW) 13:46:44 437.505
BEESAT 2 17 Oct 13:52:13 13:55:55 37° 117° (ESE) 13:59:41 435.950
BUGSAT 1 17 Oct 13:55:01 13:58:39 29° 264° (W) 14:02:22 437.445
50 SAT 17 Oct 14:04:01 14:07:02 32° 98° (E) 14:10:01 437.505
BEESAT 3 17 Oct 14:17:22 14:21:06 37° 310° (NW) 14:24:53 437.485
Oscar 19 17 Oct 14:29:46 14:34:26 34° 263° (W) 14:39:08 437.125/150
Gurwin Techsat 1B 17 Oct 14:33:16 14:38:21 46° 261° (W) 14:43:29 435.225
DX 1 17 Oct 14:38:42 14:43:05 69° 103° (ESE) 14:47:25 434.975-435.025
SPROUT 17 Oct 14:40:10 14:43:21 20° 295° (WNW) 14:46:31 437.525
SO-50 17 Oct 14:43:38 14:45:07 11° 31° (NNE) 14:46:37 436.795
nSIGHT-1 17 Oct 14:50:26 14:52:41 17° 359° (N) 14:54:55 .
AO-85 17 Oct 14:54:56 14:58:47 69° 305° (NW) 15:02:47 145.980
ITAMSAT 1 17 Oct 14:55:01 14:59:29 30° 65° (ENE) 15:03:58 435.822/435.867
VELOX 1 17 Oct 14:58:33 15:01:50 21° 295° (WNW) 15:05:06 145.980
MOZHAYETS 4 17 Oct 15:01:07 15:02:25 11° 88° (E) 15:03:42
UKube-1 17 Oct 15:10:01 15:14:22 86° 282° (WNW) 15:18:41 .
BEESAT 17 Oct 15:14:42 15:17:18 14° 90° (E) 15:19:53 436.000
ISS 17 Oct 15:14:44 15:17:06 18° 3° (N) 15:19:27 437.550
AO-7 17 Oct 15:18:45 15:27:02 78° 69° (ENE) 15:35:20 .
BEESAT 2 17 Oct 15:30:26 15:33:45 24° 315° (NW) 15:37:07 435.950
50 SAT 17 Oct 15:37:15 15:39:04 14° 294° (WNW) 15:40:53 437.505
Tancredo 1 17 Oct 15:39:32 15:41:22 57° 33° (NNE) 15:43:09 437.200
DX 1 17 Oct 16:16:41 16:18:41 13° 299° (WNW) 16:20:41 434.975-435.025
SO-50 17 Oct 16:22:05 16:26:36 54° 52° (NE) 16:31:10 436.795
nSIGHT-1 17 Oct 16:26:53 16:29:42 27° 19° (NNE) 16:32:31 .
ITUPSAT 1 17 Oct 16:32:51 16:37:41 85° 102° (ESE) 16:42:28 437.325
ITAMSAT 1 17 Oct 16:34:05 16:38:49 36° 263° (W) 16:43:37 435.822/435.867
MOZHAYETS 4 17 Oct 16:35:30 16:40:06 76° 286° (WNW) 16:44:39
CUBESAT XI-V 17 Oct 16:38:09 16:42:00 26° 95° (E) 16:45:51 437.345
AO-85 17 Oct 16:39:03 16:40:01 11° 327° (NNW) 16:40:59 145.980
CUTE-I 17 Oct 16:43:35 16:44:57 11° 55° (NE) 16:46:21 437.470
BEESAT 17 Oct 16:50:45 16:55:30 64° 287° (WNW) 17:00:12 436.000
ISS 17 Oct 16:51:13 16:54:16 34° 23° (NNE) 16:57:17 437.550
HO-68 17 Oct 16:55:11 16:56:28 11° 45° (NE) 16:57:44 435.675
DOVE 4 17 Oct 17:04:04 17:08:06 53° 73° (ENE) 17:12:18 437.250
AO-7 17 Oct 17:14:18 17:20:34 23° 267° (W) 17:26:53 .
LilacSat-2 17 Oct 17:28:38 17:31:43 24° 69° (ENE) 17:34:49 437.200
XW-2F 17 Oct 17:30:44 17:33:40 22° 68° (ENE) 17:36:36 145.980 - 146.000
STARS 17 Oct 17:34:42 17:36:08 11° 89° (E) 17:37:35 437.465
KAITUO 1B 17 Oct 17:35:00 17:37:41 19° 67° (ENE) 17:40:22 145.475/437.950
XW-2D 17 Oct 17:39:57 17:43:18 30° 71° (ENE) 17:46:39 145.860 - 145.880
PCSat 17 Oct 17:42:45 17:47:48 37° 51° (NE) 17:52:48 145.827
XW-2B 17 Oct 17:52:59 17:56:35 41° 72° (ENE) 18:00:11 145.730 - 145.750
NUDT-PHONESAT 17 Oct 17:54:04 17:57:21 30° 70° (ENE) 18:00:37 437.300
CUTE 1.7 + AOD 2 17 Oct 17:55:24 17:56:36 11° 61° (ENE) 17:57:48 437.475
nSIGHT-1 17 Oct 18:03:00 18:06:10 57° 217° (SW) 18:09:19 .
SO-50 17 Oct 18:03:26 18:06:41 19° 249° (WSW) 18:09:59 436.795
ITUPSAT 1 17 Oct 18:12:48 18:14:47 13° 302° (WNW) 18:16:47 437.325
CUBESAT XI-V 17 Oct 18:15:18 18:19:23 33° 291° (WNW) 18:23:28 437.345
XW-2C 17 Oct 18:15:47 18:19:36 82° 77° (ENE) 18:23:26 145.795 - 145.815
CUTE-I 17 Oct 18:18:46 18:24:03 73° 74° (ENE) 18:29:23 437.470
CUBEBUG 2 17 Oct 18:20:24 18:22:52 14° 61° (ENE) 18:25:23 437.445
KKS-1 17 Oct 18:26:25 18:30:56 81° 284° (WNW) 18:35:25 437.445
ISS 17 Oct 18:27:41 18:30:46 38° 221° (SW) 18:33:50 437.550
HO-68 17 Oct 18:35:41 18:42:31 50° 66° (ENE) 18:49:24 435.675
DOVE 4 17 Oct 18:44:13 18:46:13 13° 271° (W) 18:48:14 437.250
XW-2A 17 Oct 18:47:16 18:48:27 11° 65° (ENE) 18:49:37 145.665 - 145.685
LilacSat-2 17 Oct 19:02:41 19:05:53 25° 265° (W) 19:09:07 437.200
UWE-3 17 Oct 19:04:03 19:07:38 23° 65° (ENE) 19:11:15 435.000/436.395/437.385
XW-2F 17 Oct 19:04:24 19:07:38 27° 264° (W) 19:10:54 145.980 - 146.000
KAITUO 1B 17 Oct 19:08:08 19:11:28 30° 263° (W) 19:14:49 145.475/437.950
STARS 17 Oct 19:08:31 19:12:57 71° 286° (WNW) 19:17:21 437.465
YUBILEINY 17 Oct 19:12:45 19:17:18 15° 56° (NE) 19:21:50 435.215
XW-2D 17 Oct 19:14:43 19:17:30 19° 266° (W) 19:20:18 145.860 - 145.880
STRAND 1 17 Oct 19:25:33 19:28:59 18° 91° (E) 19:32:23 437.568
PCSat 17 Oct 19:26:15 19:31:08 35° 249° (WSW) 19:35:59 145.827
CUTE 1.7 + AOD 2 17 Oct 19:27:35 19:31:49 76° 258° (WSW) 19:36:04 437.475
NUDT-PHONESAT 17 Oct 19:28:33 19:31:14 19° 266° (W) 19:33:55 437.300
XW-2B 17 Oct 19:28:51 19:30:57 14° 268° (W) 19:33:03 145.730 - 145.750
Oscar 11 17 Oct 19:33:04 19:35:24 14° 63° (ENE) 19:37:45 .
